Weather History for Northeast Philadelphia, PA

Change the Weather History Date:

Monday, June 9, 2014

  Actual Average Record
Temperature  
Mean Temperature 72 °F -  
Max Temperature 81 °F 76 °F 98 °F (2008)
Min Temperature 66 °F 57 °F 46 °F (1997)
Cooling Degree Days 8    
Growing Degree Days 22 (Base 50)    
Moisture  
Dew Point 65 °F    
Average Humidity 82    
Maximum Humidity 91    
Minimum Humidity 57    
Precipitation  
Precipitation 1.56 in - - ()
Sea Level Pressure  
Sea Level Pressure 29.92 in    
Wind  
Wind Speed 5 mph (East)    
Max Wind Speed 15 mph    
Max Gust Speed 17 mph    
Visibility 5 miles    
Events Fog , Rain    
Averages and records for this station are not official NWS values.
T = Trace of Precipitation, MM = Missing Value Source: NWS Daily Summary

Daily Weather History Graph

Daily Weather History Graph

Search for Another Location

Airport:

Trip Planner

Search our weather history database for the weather conditions in past years. The results will help you decide how hot, cold, wet, or windy it might be!

Date:

Astronomy

Jun. 09, 2014 Rise Set
Actual Time 5:30 AM EDT 8:28 PM EDT
Civil Twilight 4:58 AM EDT 9:00 PM EDT
Nautical Twilight 4:16 AM EDT 9:42 PM EDT
Astronomical Twilight 3:28 AM EDT 10:30 PM EDT
Moon 4:46 PM EDT (6/9) 2:56 AM EDT (6/9)
Length of Visible Light 16h 02m
Length of Day
14h 57m
Waxing Gibbous, 85% of the Moon is Illuminated
Jun 9
Waxing Gibbous
Jun 13
Full
Jun 19
Last Quarter
Jun 27
New
Jul 5
First Quarter

Hourly Weather History & Observations

Time (EDT) Temp. Dew Point Humidity Pressure Visibility Wind Dir Wind Speed Gust Speed Precip Events Conditions
12:54 AM 71.1 °F 55.0 °F 57% 29.91 in 10.0 mi SSE 5.8 mph - 0.00 in   Overcast
1:54 AM 70.0 °F 57.0 °F 63% 29.90 in 10.0 mi Variable 4.6 mph - 0.00 in Rain Light Rain
2:54 AM 69.1 °F 59.0 °F 70% 29.90 in 10.0 mi South 3.5 mph - 0.01 in   Overcast
3:19 AM 66.9 °F 60.1 °F 79% 29.89 in 2.5 mi Variable 3.5 mph - 0.07 in Rain Heavy Rain
3:26 AM 66.9 °F 60.1 °F 79% 29.89 in 8.0 mi SSE 4.6 mph - 0.07 in Rain Light Rain
3:54 AM 66.9 °F 60.1 °F 79% 29.89 in 10.0 mi Calm Calm - 0.07 in   Overcast
4:54 AM 66.9 °F 61.0 °F 81% 29.90 in 10.0 mi Calm Calm - 0.09 in   Overcast
5:50 AM 66.2 °F 62.6 °F 88% 29.91 in 7.0 mi Calm Calm - 0.00 in Rain Light Rain
5:54 AM 66.9 °F 61.0 °F 81% 29.91 in 7.0 mi ESE 3.5 mph - 0.00 in Rain Light Rain
6:29 AM 66.9 °F 63.0 °F 87% 29.92 in 1.8 mi ESE 3.5 mph - 0.09 in Rain Rain
6:54 AM 66.0 °F 63.0 °F 90% 29.91 in 2.5 mi ESE 5.8 mph - 0.22 in Rain Rain
7:01 AM 66.0 °F 63.0 °F 90% 29.92 in 1.5 mi ESE 5.8 mph - 0.07 in Rain Rain
7:07 AM 66.0 °F 63.0 °F 90% 29.92 in 2.5 mi ESE 5.8 mph - 0.07 in Rain Light Rain
7:15 AM 66.0 °F 63.0 °F 90% 29.92 in 4.0 mi ESE 4.6 mph - 0.07 in Rain Light Rain
7:26 AM 66.0 °F 63.0 °F 90% 29.92 in 1.8 mi ESE 3.5 mph - 0.10 in Rain Rain
7:31 AM 66.0 °F 63.0 °F 90% 29.92 in 3.0 mi SE 5.8 mph - 0.11 in Rain Light Rain
7:54 AM 66.9 °F 63.0 °F 87% 29.92 in 6.0 mi ESE 4.6 mph - 0.11 in   Overcast
8:20 AM 66.9 °F 63.0 °F 87% 29.93 in 6.0 mi ESE 3.5 mph - 0.00 in   Overcast
8:52 AM 66.2 °F 62.6 °F 88% 29.93 in 9.0 mi ESE 3.5 mph - 0.00 in   Overcast
8:54 AM 66.9 °F 63.0 °F 87% 29.93 in 9.0 mi SE 3.5 mph - 0.00 in   Overcast
9:44 AM 68.0 °F 63.0 °F 84% 29.93 in 8.0 mi East 4.6 mph - N/A   Overcast
9:54 AM 68.0 °F 63.0 °F 84% 29.93 in 7.0 mi ESE 4.6 mph - N/A   Overcast
10:02 AM 68.0 °F 63.0 °F 84% 29.94 in 7.0 mi SE 4.6 mph - N/A   Overcast
10:54 AM 69.8 °F 64.4 °F 83% 29.93 in 7.0 mi East 4.6 mph - N/A   Overcast
11:54 AM 72.0 °F 64.9 °F 78% 29.94 in 7.0 mi SE 4.6 mph - N/A   Overcast
12:03 PM 72.0 °F 66.0 °F 81% 29.94 in 7.0 mi East 4.6 mph - N/A   Overcast
12:54 PM 75.0 °F 64.9 °F 71% 29.94 in 6.0 mi Calm Calm - N/A   Haze
1:41 PM 78.1 °F 66.9 °F 68% 29.93 in 7.0 mi Calm Calm - N/A   Mostly Cloudy
1:54 PM 79.0 °F 66.9 °F 66% 29.93 in 7.0 mi East 3.5 mph - N/A   Mostly Cloudy
2:18 PM 78.1 °F 66.0 °F 66% 29.92 in 7.0 mi ENE 6.9 mph - N/A   Mostly Cloudy
2:27 PM 79.0 °F 66.9 °F 66% 29.92 in 7.0 mi East 5.8 mph - N/A   Mostly Cloudy
2:34 PM 79.0 °F 66.9 °F 66% 29.92 in 7.0 mi ESE 6.9 mph - N/A   Overcast
3:54 PM 77.0 °F 66.2 °F 69% 29.92 in 10.0 mi SSE 9.2 mph - N/A   Overcast
4:03 PM 73.4 °F 68.0 °F 83% 29.92 in 3.0 mi SSE 8.1 mph - N/A Rain Light Rain
4:05 PM 73.9 °F 68.0 °F 82% 29.92 in 2.5 mi SSE 6.9 mph - 0.02 in Rain Heavy Rain
4:12 PM 73.9 °F 69.1 °F 85% 29.92 in 3.0 mi SE 8.1 mph - 0.04 in Rain Light Rain
4:26 PM 75.0 °F 70.0 °F 84% 29.91 in 7.0 mi ESE 9.2 mph - 0.04 in   Mostly Cloudy
4:54 PM 73.9 °F 69.1 °F 85% 29.92 in 7.0 mi ESE 6.9 mph - 0.04 in   Overcast
5:20 PM 75.0 °F 69.1 °F 82% 29.92 in 6.0 mi East 6.9 mph - N/A   Haze
5:38 PM 73.9 °F 69.1 °F 85% 29.92 in 4.0 mi East 9.2 mph - 0.00 in Rain Light Rain
5:54 PM 73.9 °F 69.1 °F 85% 29.93 in 6.0 mi ENE 8.1 mph - 0.00 in   Haze
6:02 PM 73.9 °F 69.1 °F 85% 29.93 in 4.0 mi NE 9.2 mph - 0.00 in Rain Light Rain
6:27 PM 73.0 °F 69.1 °F 87% 29.92 in 2.5 mi NE 11.5 mph - 0.03 in Rain Rain
6:35 PM 73.0 °F 69.1 °F 87% 29.93 in 2.0 mi NE 10.4 mph - 0.06 in Rain Rain
6:39 PM 73.0 °F 69.1 °F 87% 29.93 in 1.8 mi NE 11.5 mph - 0.07 in Rain Rain
6:54 PM 73.0 °F 69.1 °F 87% 29.93 in 2.0 mi ENE 11.5 mph - 0.11 in Rain Rain
7:09 PM 73.0 °F 69.1 °F 87% 29.93 in 2.5 mi ENE 10.4 mph - 0.02 in Rain Light Rain
7:11 PM 73.0 °F 69.1 °F 87% 29.93 in 3.0 mi NE 9.2 mph - 0.02 in Rain Light Rain
7:20 PM 73.0 °F 69.1 °F 87% 29.93 in 1.8 mi NE 9.2 mph - 0.05 in Rain Heavy Rain
7:45 PM 72.0 °F 68.0 °F 87% 29.92 in 0.2 mi NE 15.0 mph - 0.61 in Fog , Rain Heavy Rain
7:54 PM 72.0 °F 69.1 °F 91% 29.93 in 0.8 mi Calm Calm - 0.91 in Rain Heavy Rain
8:00 PM 72.0 °F 68.0 °F 87% 29.93 in 2.0 mi Calm Calm - 0.00 in Rain Light Rain
8:03 PM 72.0 °F 68.0 °F 87% 29.93 in 4.0 mi North 4.6 mph - 0.00 in Rain Light Rain
8:13 PM 73.0 °F 68.0 °F 84% 29.93 in 7.0 mi ENE 11.5 mph 17.3 mph 0.00 in   Overcast
8:35 PM 72.0 °F 68.0 °F 87% 29.93 in 4.0 mi ENE 8.1 mph - 0.00 in   Overcast
8:54 PM 72.0 °F 68.0 °F 87% 29.93 in 6.0 mi East 8.1 mph - 0.00 in   Overcast
9:31 PM 72.0 °F 68.0 °F 87% 29.94 in 4.0 mi East 6.9 mph - N/A   Overcast
9:54 PM 72.0 °F 66.9 °F 84% 29.94 in 6.0 mi NE 4.6 mph - N/A   Haze
10:54 PM 70.0 °F 66.0 °F 87% 29.94 in 6.0 mi NNE 4.6 mph - N/A   Clear
11:38 PM 70.0 °F 66.0 °F 87% 29.95 in 2.5 mi NE 5.8 mph - N/A   Mostly Cloudy
11:54 PM 70.0 °F 66.9 °F 90% 29.95 in 3.0 mi NNE 5.8 mph - N/A   Overcast